Regional Weather Roundup
Issued by NWS

Home | Current Version | Previous Version | Text Only | Print | Product List | Glossary On
Versions: 1 2 3 4 5 6 7 8 9 10 11 12 13 14 15 16 17 18 19 20 21 22 23 24 25 26 27 28 29 30 31 32 33 34 35 36 37 38 39 40 41 42 43 44 45 46 47 48 49 50
000
ASUS44 KEWX 201510
RWRTX
SOUTH TEXAS REGIONAL WEATHER ROUNDUP
NATIONAL WEATHER SERVICE AUSTIN/SAN ANTONIO TX
1000 AM CDT SAT SEP 20 2014

NOTE: "FAIR" INDICATED FEW OR NO CLOUDS BELOW 12,000 FEET WITH NO
SIGNIFICANT WEATHER AND/OR OBSTRUCTIONS TO VISIBILITY.

* - THESE STATIONS ARE NOT NWS OR FAA STATIONS...AND ARE NOT SUBJECT
    TO NWS AND FAA QUALITY CONTROL.

TXZ171-172-183>190-201600-
TEXAS HILL COUNTRY AND EDWARDS PLATEAU

CITY           SKY/WX    TMP DP  RH WIND       PRES   REMARKS
JUNCTION       PTSUNNY   76  69  79 SW5       30.02R
*LLANO         CLOUDY    75  75 100 SE5       30.04R
BURNET         CLOUDY    76  71  85 VRB3      30.03R
*HORSESHOE BAY CLOUDY    75  73  92 CALM      30.00S
*KERRVILLE     CLOUDY    76  73  88 E6        30.02R
*FREDERICKSBRG CLOUDY    73  70  91 E3        30.02R
*ROCKSPRINGS   PTSUNNY   73  72  94 SE6       30.05R
*BOERNE STAGE  CLOUDY    77  70  78 E5        30.01S
*CASTROVILLE   CLOUDY    79  73  83 E8        29.98R
HONDO          CLOUDY    79  73  82 E8        29.98R
*UVALDE        CLOUDY    78  75  92 E8        29.97R
DEL RIO        CLOUDY    79  74  84 E8        29.94R
LAUGHLIN AFB   CLOUDY    78  74  88 SE9       29.95R
CARRIZO SPRGS  CLOUDY    79  73  83 E7        29.93R
$$

TXZ173-191>194-202-209-217>225-228-201600-
CENTRAL AND SOUTH CENTRAL TEXAS

CITY           SKY/WX    TMP DP  RH WIND       PRES   REMARKS
GEORGETOWN     CLOUDY    77  73  88 E6        30.00R
AUSTIN/BERGSTM CLOUDY    77  73  87 E7        29.98R
AUSTIN/MABRY   CLOUDY    78  73  84 E6        30.00R
*AUSTIN/EXEC   PTSUNNY   77  73  88 E7        30.00R
*LAGO VISTA    CLOUDY    78  72  83 E6        30.02R
SAN MARCOS     PTSUNNY   77  72  83 E9        29.98S
NEW BRAUNFELS  CLOUDY    78  74  87 E7        29.97R
RANDOLPH AFB   CLOUDY    77  73  88 E9        29.98R
PT SAN ANTONIO CLOUDY    79  73  83 E8        29.96R
SAN ANTONIO    CLOUDY    79  73  82 E8        29.98R
STINSON FIELD  CLOUDY    79  74  84 E6        29.95R
*PLEASANTON    CLOUDY    78  74  85 NE8       29.96R
*LA GRANGE     CLOUDY    80  77  89 E6        29.96S
*GIDDINGS      CLOUDY    76  73  91 E5        30.02S
*GONZALES      CLOUDY    78  76  93 E7        29.96S
$$

TXZ163>164-176>182-195>201-210>213-226-227-235-201600-
SOUTHEAST TEXAS

CITY           SKY/WX    TMP DP  RH WIND       PRES   REMARKS
COLLEGE STN    PTSUNNY   80  71  74 E10       29.99R
*BRYAN         CLOUDY   N/A N/A N/A E6        29.99R
*CALDWELL      PTSUNNY   79  75  89 E7        30.02S
*CROCKETT      SUNNY     81  73  78 E8        30.04S
*BRENHAM       MOSUNNY   81  75  81 E7        29.99S
HUNTSVILLE     SUNNY     80  69  69 E5        30.00R
CONROE         SUNNY     78  70  76 VRB6      29.99R
HOUSTON BUSH   MOSUNNY   80  73  79 E10       29.97R
HOUSTON HOBBY  MOSUNNY   81  74  79 E9        29.96R
*HOUSTON SW AP PTSUNNY   72  67  84 E8        29.96S
PEARLAND       MOSUNNY   81  74  79 E13G22    29.97R
HOUSTON HOOKS  SUNNY     81  73  76 E5        29.98R
ELLINGTON FLD  PTSUNNY   81  73  78 NE8       29.97S
SUGAR LAND     MOSUNNY   81  73  76 E9        29.96R
*HOUSTON EXEC  SUNNY     81  81 100 NE9       29.98S HX  91
*CLEVELAND MUN SUNNY     79  74  85 E6        30.00R HAZE
*WHARTON       CLOUDY    80  75  84 NE10      29.96S
$$

TXZ214>216-236>238-201600-
THE UPPER TEXAS COAST

CITY           SKY/WX    TMP DP  RH WIND       PRES   REMARKS
*ORANGE        SUNNY     79  73  81 NE10      29.99S
PORT ARTHUR    SUNNY     82  71  69 E15G21    29.97R
GALVESTON      PTSUNNY   83  76  79 E14       29.96R HX  91
ANGLETON       LGT RAIN  80  76  87 NE5       29.95R
*BAY CITY      MOSUNNY   83  83  99 E8        29.94S HX  99
PALACIOS       MOSUNNY   84  76  76 NE10      29.93R HX  93
$$

TXZ229>234-239>247-201600-
TEXAS COASTAL BEND AND RIO GRANDE PLAINS

CITY           SKY/WX    TMP DP  RH WIND       PRES   REMARKS
VICTORIA       MOSUNNY   80  77  90 NE7       29.94R
*BEEVILLE      MOSUNNY   82  76  81 E7        29.93S
ROCKPORT       SUNNY     83  74  74 NE13      29.92R
*PORT ARANSAS  PTSUNNY   82  76  80 NE12      29.91R
*PORT LAVACA   MOSUNNY   80  76  89 NE6       29.93S
*INGLESIDE     MOSUNNY   86  74  67 E9        29.91R HX  94
CORPUS CHRISTI PTSUNNY   84  77  79 E10       29.91R HX  94
CORPUS NAS     SUNNY     84  77  79 E12       29.91R HX  94
*ROBSTOWN      MOSUNNY   84  77  80 NE7       29.92S HX  94
ALICE          PTSUNNY   83  76  79 NE9       29.92R HX  91
KINGSVILLE NAS MOSUNNY   85  77  77 NE9       29.91R HX  95
COTULLA        NOT AVBL
*FAITH RANCH   PTSUNNY   77  75  94 E9        29.93R
LAREDO         SUNNY     83  76  79 NE5       29.94R HX  91
$$

TXZ248>255-201600-
DEEP SOUTH TEXAS

CITY           SKY/WX    TMP DP  RH WIND       PRES   REMARKS
BROWNSVILLE    MOSUNNY   85  77  77 CALM      29.89R HX  95
PORT ISABEL    MOSUNNY   85  78  80 E9        29.89R HAZE    HX  96
*SOUTH PADRE   MOSUNNY   86  77  74 E12       29.89R HX  97
HARLINGEN      PTSUNNY   84  77  79 S8        29.88R HX  94
*HEBBRONVILLE    N/A     79  76  92 E6        29.93R
MCALLEN        PTSUNNY   82  79  90 E6        29.89R HX  92
*WESLACO       MOSUNNY   84  73  67 SE5       29.89R HX  90
FALFURRIAS     CLOUDY   N/A N/A N/A N3        29.91R
EDINBURG       PTSUNNY   83  78  86 SE3       29.90R HX  92
*ZAPATA        MOSUNNY   84  75  74 E7        29.90R HX  92
$$

TXZ213>215-236>238-242>244-246-247-251-254-255-201600-
CMAN STATIONS

STATION/POSITION TIME  TEMP    WIND        PRES    WAVE
                       AIR SEA DIR/SP/G            HT/PER
                 (UTC) (F)     (DEG/KT/KT) (MB)    (FT/S)
SABINE PASS      1500   80 82   80/ 13/ 16 1014.7
SEA RIM ST PARK  1500   81      80/  9/ 13 1015.2
NORTH JETTY/GLS  1500   80 82                N/A
EAGLE POINT      1500   79 80   90/ 11/ 14 1014.6
MORGANS POINT    1500   79      70/ 10/ 12 1014.5
MISSION/ARANSAS  1400           50/  9     1014.0
PORT O`CONNOR    1500           60/  8/  9   N/A
PORT ARANSAS     1500   81 84   40/ 14/ 15 1013.3
MALAQUITE BEACH  1500   82 85   50/ 12/ 13 1012.0
BAFFIN BAY       1500   83 83   70/  7/  9 1012.5
PORT ISABEL      1500   85 84   80/ 12/ 17 1012.3
$$

GMZ080-GMZ150>470-201600-
OFFSHORE BUOY REPORTS

STATION/POSITION TIME  TEMP    WIND        PRES    WAVE
                       AIR SEA DIR/SP/G            HT/PER
                 (UTC) (F)     (DEG/KT/KT) (MB)    (FT/S)
20 E GALVESTON   1500   81 84   70/ 16/ 17 1013.4    4/ 5
90 E PT ARANSAS  1500   83 85   70/  8/ 10 1013.1    2/ 5
35 NE PT MANSFLD 1500   83 84  100/  6/  8 1011.9    3/ 6
200 E PT ISABEL  1500   82 85  140/  8/ 10 1012.5    2/ 5
$$


USA.gov is the U.S. government's official web portal to all federal, state and local government web resources and services.